Date String (YYYY-MM-DD hh:mm:ss) UTC,Instrument flags,absolute air pressure of the measurement (hPa),sample flow rate (lpm),inlet stack bypass flow (lpm),air temperature of the measurement (°C),ambient temperature measured by the external sensor (°C),aerosol sample conditioner tube jacket temperature (°C),OPC LED temperature (°C),internal box temperature (°C),relative humidity of the measurement (%),span deviation,mass concentration of particles derived from Lorenz-Mie calculation of OPC scattering (μg/m³),mass concentration of particles derived from Lorenz-Mie calculation of OPC scattering (μg/m³),mass concentration of particles derived from Lorenz-Mie calculation of OPC scattering (μg/m³)
DateTimeUTC,F1_M11,P_M11,Q1_M11,Q2_M11,T1_M11,T2_M11,T3_M11,T4_M11,T5_M11,U1_M11,ZSPAN_M11,X0_M11,X2_M11,X1_M11
2024-03-13 14:00:00,SystemResetWarning,0821.3,5.00,000.00,020.3,019.7,000.0,028.9,022.2,27.1,0000.0,0011.69,0004.27,0003.27
2024-03-13 14:01:00,SystemResetWarning,0821.2,5.01,000.00,020.3,019.7,000.0,028.9,022.2,27.1,0000.0,0011.70,0004.25,0003.28
2024-03-13 14:02:00,SystemResetWarning,0821.1,5.01,000.00,020.3,019.7,000.0,028.9,022.2,27.1,0000.0,0011.52,0004.26,0003.28
2024-03-13 14:03:00,SystemResetWarning,0821.1,5.00,000.00,020.3,019.7,000.0,028.9,022.2,27.2,0000.0,0011.07,0004.25,0003.28
2024-03-13 14:04:00,SystemResetWarning,0821.2,5.00,000.00,020.3,019.7,000.0,028.9,022.2,27.3,0000.0,0010.65,0004.27,0003.29
2024-03-13 14:05:00,SystemResetWarning,0821.2,5.00,000.00,020.3,019.7,000.0,028.9,022.2,27.3,0000.0,0010.17,0004.28,0003.29
2024-03-13 14:06:00,SystemResetWarning,0821.2,5.00,000.00,020.3,019.7,000.0,028.9,022.2,27.3,0000.0,0009.05,0004.29,0003.28
2024-03-13 14:07:00,SystemResetWarning,0821.2,5.00,000.00,020.4,019.7,000.0,028.9,022.2,27.3,0000.0,0008.88,0004.32,0003.27
2024-03-13 14:08:00,SystemResetWarning,0821.2,5.00,000.00,020.3,019.7,000.0,028.9,022.2,27.4,0000.0,0008.75,0004.33,0003.28
2024-03-13 14:09:00,SystemResetWarning,0821.3,5.00,000.00,020.4,019.7,000.0,028.9,022.2,27.4,0000.0,0008.89,0004.36,0003.28
2024-03-13 14:10:00,SystemResetWarning,0821.2,5.00,000.00,020.4,019.7,000.0,028.9,022.2,27.4,0000.0,0009.24,0004.38,0003.29
2024-03-13 14:11:00,SystemResetWarning,0821.3,4.99,000.00,020.4,019.7,000.0,028.9,022.2,27.4,0000.0,0009.18,0004.35,0003.28
2024-03-13 14:12:00,SystemResetWarning,0821.3,5.00,000.00,020.3,019.7,000.0,028.9,022.2,27.4,0000.0,0009.16,0004.34,0003.27
2024-03-13 14:13:00,SystemResetWarning,0821.3,4.99,000.00,020.4,019.7,000.0,028.9,022.2,27.1,0000.0,0009.07,0004.32,0003.27
2024-03-13 14:14:00,SystemResetWarning,0821.3,5.00,000.00,020.4,019.7,000.0,028.9,022.2,26.9,0000.0,0009.00,0004.31,0003.28
2024-03-13 14:15:00,SystemResetWarning,0821.3,5.01,000.00,020.4,019.7,000.0,028.9,022.2,26.8,0000.0,0008.65,0004.26,0003.29
2024-03-13 14:16:00,SystemResetWarning,0821.3,5.01,000.00,020.4,019.7,000.0,028.9,022.2,26.8,0000.0,0008.50,0004.23,0003.29
2024-03-13 14:17:00,SystemResetWarning,0821.3,4.99,000.00,020.4,019.7,000.0,028.9,022.2,26.8,0000.0,0008.34,0004.19,0003.29
2024-03-13 14:18:00,SystemResetWarning,0821.3,4.99,000.00,020.4,019.7,000.0,028.9,022.2,26.8,0000.0,0008.17,0004.14,0003.29
2024-03-13 14:19:00,SystemResetWarning,0821.3,5.00,000.00,020.4,019.7,000.0,028.9,022.2,26.8,0000.0,0008.28,0004.12,0003.28
2024-03-13 14:20:00,SystemResetWarning,0821.3,5.01,000.00,020.4,019.7,000.0,028.9,022.2,26.8,0000.0,0008.34,0004.15,0003.28
2024-03-13 14:21:00,SystemResetWarning,0821.3,5.01,000.00,020.4,019.7,000.0,028.9,022.2,26.7,0000.0,0008.10,0004.17,0003.28
2024-03-13 14:22:00,SystemResetWarning,0821.3,5.01,000.00,020.4,019.7,000.0,028.9,022.2,26.7,0000.0,0007.99,0004.17,0003.28
2024-03-13 14:23:00,SystemResetWarning,0821.4,4.99,000.00,020.3,019.8,000.0,028.9,022.2,26.7,0000.0,0008.02,0004.16,0003.28
2024-03-13 14:24:00,SystemResetWarning,0821.4,4.99,000.00,020.4,019.8,000.0,028.9,022.2,26.7,0000.0,0008.05,0004.14,0003.28
2024-03-13 14:25:00,SystemResetWarning,0821.4,5.01,000.00,020.4,019.7,000.0,028.9,022.2,26.6,0000.0,0008.16,0004.14,0003.28
2024-03-13 14:26:00,SystemResetWarning,0821.6,5.00,000.00,020.4,019.7,000.0,028.9,022.2,26.8,0000.0,0008.35,0004.17,0003.27
2024-03-13 14:27:00,SystemResetWarning,0821.9,5.00,000.00,020.4,019.7,000.0,028.9,022.2,26.9,0000.0,0008.39,0004.19,0003.28
2024-03-13 14:28:00,SystemResetWarning,0821.7,4.99,000.00,020.4,019.7,000.0,028.9,022.2,26.9,0000.0,0008.50,0004.23,0003.30
2024-03-13 14:29:00,SystemResetWarning,0821.9,4.99,000.00,020.4,019.7,000.0,028.9,022.2,27.0,0000.0,0008.53,0004.25,0003.31
2024-03-13 14:30:00,SystemResetWarning,0822.0,5.01,000.00,020.4,019.8,000.0,028.9,022.2,27.1,0000.0,0009.10,0004.23,0003.31
2024-03-13 14:31:00,SystemResetWarning,0822.0,5.00,000.00,020.4,019.8,000.0,028.9,022.2,27.2,0000.0,0009.13,0004.22,0003.32
2024-03-13 14:32:00,SystemResetWarning,0822.0,5.01,000.00,020.4,019.8,000.0,028.9,022.2,27.4,0000.0,0009.19,0004.25,0003.34
2024-03-13 14:33:00,SystemResetWarning,0822.0,5.01,000.00,020.4,019.8,000.0,028.9,022.2,27.4,0000.0,0009.44,0004.31,0003.36
2024-03-13 14:34:00,SystemResetWarning,0822.0,4.99,000.00,020.4,019.8,000.0,028.9,022.2,27.4,0000.0,0009.73,0004.37,0003.37
2024-03-13 14:35:00,SystemResetWarning,0822.0,5.00,000.00,020.4,019.8,000.0,028.9,022.2,27.5,0000.0,0009.93,0004.48,0003.38
2024-03-13 14:36:00,SystemResetWarning,0822.0,4.99,000.00,020.4,019.8,000.0,028.9,022.2,27.6,0000.0,0009.99,0004.49,0003.38
2024-03-13 14:37:00,SystemResetWarning,0822.0,5.00,000.00,020.4,019.8,000.0,028.9,022.2,27.3,0000.0,0010.15,0004.53,0003.40
2024-03-13 14:38:00,SystemResetWarning,0821.9,5.00,000.00,020.4,019.8,000.0,028.9,022.2,27.2,0000.0,0010.49,0004.63,0003.42
2024-03-13 14:39:00,SystemResetWarning,0821.5,5.01,000.00,020.4,019.8,000.0,028.9,022.2,27.1,0000.0,0010.90,0004.69,0003.44
2024-03-13 14:40:00,SystemResetWarning,0821.5,5.00,000.00,020.4,019.8,000.0,028.9,022.2,27.0,0000.0,0012.44,0004.80,0003.46
2024-03-13 14:41:00,SystemResetWarning,0821.6,5.00,000.00,020.4,019.8,000.0,028.9,022.2,26.9,0000.0,0012.38,0004.90,0003.48
2024-03-13 14:42:00,SystemResetWarning,0821.6,4.99,000.00,020.4,019.8,000.0,028.9,022.2,26.9,0000.0,0013.07,0004.95,0003.49
2024-03-13 14:43:00,SystemResetWarning,0821.6,4.99,000.00,020.4,019.8,000.0,028.9,022.2,26.9,0000.0,0013.53,0004.96,0003.50
2024-03-13 14:44:00,SystemResetWarning,0821.6,5.01,000.00,020.4,019.8,000.0,028.9,022.2,26.7,0000.0,0013.53,0004.97,0003.51
2024-03-13 14:45:00,SystemResetWarning,0821.6,5.01,000.00,020.4,019.8,000.0,028.9,022.2,26.7,0000.0,0013.79,0005.02,0003.52
2024-03-13 14:46:00,SystemResetWarning,0821.7,5.01,000.00,020.4,019.8,000.0,028.9,022.2,26.8,0000.0,0014.11,0004.99,0003.53
2024-03-13 14:47:00,SystemResetWarning,0821.7,5.00,000.00,020.4,019.8,000.0,028.9,022.2,26.8,0000.0,0014.75,0004.99,0003.54
2024-03-13 14:48:00,SystemResetWarning,0821.6,4.99,000.00,020.4,019.8,000.0,028.9,022.2,26.8,0000.0,0015.31,0005.00,0003.54
2024-03-13 14:49:00,SystemResetWarning,0821.7,5.00,000.00,020.4,019.8,000.0,028.9,022.2,26.8,0000.0,0015.39,0004.95,0003.55
2024-03-13 14:50:00,SystemResetWarning,0821.7,5.00,000.00,020.4,019.8,000.0,028.9,022.2,26.5,0000.0,0015.16,0004.92,0003.54
2024-03-13 14:51:00,SystemResetWarning,0821.7,5.01,000.00,020.4,019.8,000.0,028.9,022.2,26.5,0000.0,0013.85,0004.83,0003.54
2024-03-13 14:52:00,SystemResetWarning,0821.8,5.00,000.00,020.4,019.8,000.0,028.9,022.2,26.6,0000.0,0013.04,0004.74,0003.54
2024-03-13 14:53:00,SystemResetWarning,0821.8,5.00,000.00,020.4,019.8,000.0,028.9,022.2,26.7,0000.0,0012.74,0004.66,0003.53
2024-03-13 14:54:00,SystemResetWarning,0821.8,5.00,000.00,020.4,019.8,000.0,028.9,022.2,26.7,0000.0,0011.90,0004.59,0003.52
2024-03-13 14:55:00,SystemResetWarning,0821.8,5.00,000.00,020.4,019.8,000.0,028.9,022.2,26.7,0000.0,0011.75,0004.56,0003.51
2024-03-13 14:56:00,SystemResetWarning,0821.8,4.99,000.00,020.4,019.8,000.0,028.9,022.2,26.7,0000.0,0011.44,0004.49,0003.51
2024-03-13 14:57:00,SystemResetWarning,0821.8,4.99,000.00,020.4,019.8,000.0,028.9,022.2,26.5,0000.0,0010.72,0004.40,0003.50
2024-03-13 14:58:00,SystemResetWarning,0821.8,5.01,000.00,020.4,019.8,000.0,028.9,022.2,26.5,0000.0,0010.82,0004.40,0003.49
2024-03-13 14:59:00,SystemResetWarning,0821.8,5.00,000.00,020.4,019.8,000.0,028.9,022.2,26.5,0000.0,0009.97,0004.37,0003.49
